Weather History for Plant City, FL

Change the Weather History Date:

Thursday, December 6, 2012

  Actual Average Record
Temperature  
Mean Temperature 72 °F -  
Max Temperature 82 °F 76 °F 88 °F (1972)
Min Temperature 62 °F 51 °F 33 °F (1981)
Cooling Degree Days 7    
Growing Degree Days 22 (Base 50)    
Moisture  
Dew Point 60 °F    
Average Humidity 61    
Maximum Humidity 100    
Minimum Humidity 39    
Precipitation  
Precipitation 0.00 in - - ()
Sea Level Pressure  
Sea Level Pressure 30.02 in    
Wind  
Wind Speed 4 mph (ENE)    
Max Wind Speed 9 mph    
Max Gust Speed -    
Visibility 10 miles    
Events      
Averages and records for this station are not official NWS values.
T = Trace of Precipitation, MM = Missing Value Source: NWS Daily Summary

Daily Weather History Graph

Daily Weather History Graph

Search for Another Location

Airport:

Trip Planner

Search our weather history database for the weather conditions in past years. The results will help you decide how hot, cold, wet, or windy it might be!

Date:

Astronomy

Dec. 06, 2012 Rise Set
Actual Time 7:06 AM EST 5:33 PM EST
Civil Twilight 6:41 AM EST 5:58 PM EST
Nautical Twilight 6:12 AM EST 6:27 PM EST
Astronomical Twilight 5:43 AM EST 6:56 PM EST
Moon No Moon Rise 12:27 PM EST (12/6)
Length of Visible Light 11h 17m
Length of Day
10h 26m
Waning Gibbous, 49% of the Moon is Illuminated
Dec 6
Waning Gibbous
Dec 13
New
Dec 20
First Quarter
Dec 28
Full
Jan 4
Last Quarter

Hourly Weather History & Observations

Time (EST) Temp. Heat Index Dew Point Humidity Pressure Visibility Wind Dir Wind Speed Gust Speed Precip Events Conditions
12:15 AM 64.4 °F - - N/A% 30.08 in 10.0 mi Calm Calm - N/A   Scattered Clouds
12:35 AM 64.4 °F - - N/A% 30.08 in 10.0 mi Calm Calm - N/A   Scattered Clouds
12:55 AM 64.4 °F - - N/A% 30.07 in 10.0 mi ENE 4.6 mph - N/A   Clear
1:15 AM 64.4 °F - - N/A% 30.07 in 10.0 mi ENE 3.5 mph - N/A   Clear
1:35 AM 64.4 °F - - N/A% 30.07 in 10.0 mi NE 3.5 mph - N/A   Scattered Clouds
1:55 AM 64.4 °F - - N/A% 30.07 in 10.0 mi NE 3.5 mph - N/A   Mostly Cloudy
2:15 AM 64.4 °F - - N/A% 30.07 in 10.0 mi Calm Calm - N/A   Mostly Cloudy
2:35 AM 64.4 °F - - N/A% 30.07 in 10.0 mi Calm Calm - N/A   Overcast
2:55 AM 64.4 °F - - N/A% 30.06 in 10.0 mi NE 4.6 mph - N/A   Mostly Cloudy
3:15 AM 62.6 °F - - N/A% 30.05 in 10.0 mi NE 3.5 mph - N/A   Scattered Clouds
3:35 AM 62.6 °F - - N/A% 30.04 in 7.0 mi ENE 3.5 mph - N/A   Clear
3:55 AM 62.6 °F - - N/A% 30.04 in 7.0 mi ENE 4.6 mph - N/A   Clear
4:15 AM 62.6 °F - - N/A% 30.03 in 7.0 mi ENE 4.6 mph - N/A   Clear
4:35 AM 62.6 °F - - N/A% 30.03 in 7.0 mi NE 4.6 mph - N/A   Clear
4:55 AM 62.6 °F - - N/A% 30.03 in 7.0 mi NE 3.5 mph - N/A   Clear
5:15 AM 62.6 °F - - N/A% 30.03 in 7.0 mi NE 3.5 mph - N/A   Mostly Cloudy
5:35 AM 62.6 °F - - N/A% 30.03 in 7.0 mi ENE 3.5 mph - N/A   Overcast
5:55 AM 62.6 °F - - N/A% 30.03 in 7.0 mi ENE 3.5 mph - N/A   Overcast
6:15 AM 62.6 °F - - N/A% 30.03 in 10.0 mi ENE 4.6 mph - N/A   Mostly Cloudy
6:35 AM 62.6 °F - - N/A% 30.04 in 10.0 mi ENE 3.5 mph - N/A   Overcast
6:55 AM 62.6 °F - - N/A% 30.05 in 10.0 mi NE 3.5 mph - N/A   Overcast
7:15 AM 62.6 °F - - N/A% 30.05 in 10.0 mi NE 3.5 mph - N/A   Mostly Cloudy
7:35 AM 64.4 °F - - N/A% 30.06 in 10.0 mi Calm Calm - N/A   Mostly Cloudy
7:55 AM 64.4 °F - - N/A% 30.06 in 10.0 mi NE 4.6 mph - N/A   Overcast
8:15 AM 64.4 °F - - N/A% 30.07 in 10.0 mi ENE 3.5 mph - N/A   Overcast
8:35 AM 66.2 °F - - N/A% 30.07 in 10.0 mi ENE 4.6 mph - N/A   Overcast
8:55 AM 66.2 °F - - N/A% 30.08 in 10.0 mi ENE 5.8 mph - N/A   Overcast
9:15 AM 68.0 °F - - N/A% 30.08 in 10.0 mi NE 5.8 mph - N/A   Overcast
9:35 AM 69.8 °F - 69.8 °F 100% 30.08 in 10.0 mi NE 5.8 mph - N/A   Overcast
10:15 AM 73.4 °F - 62.6 °F 69% 30.08 in 10.0 mi NE 5.8 mph - N/A   Mostly Cloudy
10:35 AM 75.2 °F - 62.6 °F 65% 30.08 in 10.0 mi NE 6.9 mph - N/A   Scattered Clouds
10:55 AM 77.0 °F - 62.6 °F 61% 30.07 in 10.0 mi ENE 6.9 mph - N/A   Scattered Clouds
11:15 AM 77.0 °F - 60.8 °F 57% 30.06 in 10.0 mi East 6.9 mph - N/A   Scattered Clouds
11:35 AM 78.8 °F - 60.8 °F 54% 30.05 in 10.0 mi East 5.8 mph - N/A   Clear
11:55 AM 78.8 °F - 60.8 °F 54% 30.04 in 10.0 mi Calm Calm - N/A   Scattered Clouds
12:15 PM 77.0 °F - 60.8 °F 57% 30.02 in 10.0 mi ESE 4.6 mph - N/A   Scattered Clouds
12:35 PM 80.6 °F 81.1 °F 59.0 °F 48% 30.01 in 10.0 mi ENE 8.1 mph - N/A   Scattered Clouds
12:55 PM 80.6 °F 81.1 °F 59.0 °F 48% 30.00 in 10.0 mi East 9.2 mph - N/A   Scattered Clouds
1:15 PM 80.6 °F 81.1 °F 59.0 °F 48% 29.99 in 10.0 mi East 5.8 mph - N/A   Clear
1:35 PM 82.4 °F 82.5 °F 59.0 °F 45% 29.98 in 10.0 mi ESE 8.1 mph - N/A   Clear
1:55 PM 80.6 °F 81.1 °F 59.0 °F 48% 29.98 in 10.0 mi ESE 5.8 mph - N/A   Clear
2:15 PM 82.4 °F 82.5 °F 59.0 °F 45% 29.97 in 10.0 mi East 6.9 mph - N/A   Clear
2:35 PM 82.4 °F 82.0 °F 57.2 °F 42% 29.97 in 10.0 mi ESE 8.1 mph - N/A   Scattered Clouds
2:55 PM 82.4 °F 82.0 °F 57.2 °F 42% 29.96 in 10.0 mi ESE 6.9 mph - N/A   Scattered Clouds
3:15 PM 82.4 °F 81.7 °F 55.4 °F 39% 29.96 in 10.0 mi NE 9.2 mph - N/A   Mostly Cloudy
3:35 PM 80.6 °F 81.1 °F 59.0 °F 48% 29.96 in 10.0 mi North 5.8 mph - N/A   Mostly Cloudy
3:55 PM 80.6 °F 80.8 °F 57.2 °F 45% 29.96 in 10.0 mi North 6.9 mph - N/A   Scattered Clouds
4:15 PM 78.8 °F - 57.2 °F 47% 29.96 in 10.0 mi NE 8.1 mph - N/A   Mostly Cloudy
4:35 PM 80.6 °F 80.8 °F 57.2 °F 45% 29.96 in 10.0 mi ENE 6.9 mph - N/A   Overcast
4:55 PM 78.8 °F - 59.0 °F 51% 29.97 in 10.0 mi ENE 4.6 mph - N/A   Overcast
5:15 PM 77.0 °F - 59.0 °F 54% 29.97 in 10.0 mi East 3.5 mph - N/A   Scattered Clouds
5:35 PM 75.2 °F - 59.0 °F 57% 29.97 in 10.0 mi ENE 3.5 mph - N/A   Scattered Clouds
5:55 PM 75.2 °F - 59.0 °F 57% 29.98 in 10.0 mi Calm Calm - N/A   Mostly Cloudy
6:15 PM 75.2 °F - 59.0 °F 57% 29.98 in 10.0 mi Calm Calm - N/A   Mostly Cloudy
6:35 PM 73.4 °F - 59.0 °F 61% 29.99 in 10.0 mi NE 4.6 mph - N/A   Overcast
6:55 PM 73.4 °F - 59.0 °F 61% 29.99 in 10.0 mi ENE 4.6 mph - N/A   Overcast
7:15 PM 75.2 °F - 59.0 °F 57% 29.99 in 10.0 mi East 3.5 mph - N/A   Overcast
7:35 PM 73.4 °F - 59.0 °F 61% 29.99 in 10.0 mi East 5.8 mph - N/A   Mostly Cloudy
7:55 PM 73.4 °F - 60.8 °F 65% 30.00 in 10.0 mi ENE 5.8 mph - N/A   Scattered Clouds
8:15 PM 73.4 °F - 60.8 °F 65% 30.00 in 10.0 mi East 5.8 mph - N/A   Clear
8:35 PM 71.6 °F - 60.8 °F 69% 30.01 in 10.0 mi East 4.6 mph - N/A   Clear
9:35 PM 69.8 °F - 62.6 °F 78% 30.01 in 10.0 mi East 3.5 mph - N/A   Clear
9:55 PM 69.8 °F - 62.6 °F 78% 30.01 in 10.0 mi East 3.5 mph - N/A   Clear
10:15 PM 68.0 °F - 62.6 °F 83% 30.01 in 10.0 mi East 3.5 mph - N/A   Clear
10:35 PM 68.0 °F - 62.6 °F 83% 30.02 in 10.0 mi East 4.6 mph - N/A   Clear
10:55 PM 66.2 °F - 62.6 °F 88% 30.01 in 10.0 mi Calm Calm - N/A   Clear
11:15 PM 66.2 °F - 62.6 °F 88% 30.01 in 10.0 mi North 3.5 mph - N/A   Clear
11:35 PM 66.2 °F - 62.6 °F 88% 30.00 in 10.0 mi Calm Calm - N/A   Clear
11:55 PM 64.4 °F - 64.4 °F 100% 30.00 in 10.0 mi North 3.5 mph - N/A   Clear